DELSA EDDH-ELLX

Flight info

Callsign DELSA
Flight time N/A
Altitude 8000
Route HABFU1C/05 HABFU Y348 MAWEQ Z718 OSNAD M170 HMM N853 IRBUP Z717 NEREL T855 LNO
Aircraft DA42/L-SBDGRY/S

Departure

Time 2026-05-07 13:57
Airport Hamburg Helmut Schmidt Airport (EDDH)

Arrival

Time N/A
Airport Luxembourg-Findel International Airport (ELLX)
Time Latitude Longitude Altitude Speed Heading
2026-05-07 13:23 53.62765 9.98886 41 ft 0 kts 62°
2026-05-07 13:54 53.62766 9.98887 41 ft 2 kts 52°
2026-05-07 13:54 53.62769 9.98862 41 ft 7 kts 257°
2026-05-07 13:54 53.62798 9.98784 41 ft 9 kts 293°
2026-05-07 13:54 53.62761 9.98697 41 ft 10 kts 232°
2026-05-07 13:55 53.62711 9.98594 41 ft 12 kts 229°
2026-05-07 13:55 53.62687 9.98461 41 ft 12 kts 254°
2026-05-07 13:55 53.62713 9.98398 39 ft 0 kts 321°
2026-05-07 13:55 53.62732 9.98373 39 ft 16 kts 326°
2026-05-07 13:56 53.62825 9.98391 38 ft 12 kts 50°
2026-05-07 13:56 53.62840 9.98422 38 ft 0 kts 51°
2026-05-07 13:56 53.62986 9.98718 40 ft 63 kts 52°
2026-05-07 13:56 53.63355 9.99453 139 ft 92 kts 52°
2026-05-07 13:57 53.63803 10.00268 460 ft 95 kts 47°
2026-05-07 13:57 53.64291 10.01047 873 ft 90 kts 54°
2026-05-07 13:57 53.64645 10.01867 1313 ft 92 kts 52°
2026-05-07 13:57 53.65042 10.02751 1610 ft 95 kts 52°
2026-05-07 13:58 53.65458 10.03649 1913 ft 100 kts 52°
2026-05-07 13:58 53.65880 10.04541 2328 ft 92 kts 53°
2026-05-07 13:58 53.66289 10.05392 2681 ft 95 kts 52°
2026-05-07 13:58 53.66702 10.06250 3055 ft 95 kts 52°
2026-05-07 13:59 53.67129 10.07129 3372 ft 99 kts 53°
2026-05-07 13:59 53.67562 10.08016 3715 ft 98 kts 53°
2026-05-07 13:59 53.67997 10.08910 4040 ft 101 kts 53°
2026-05-07 13:59 53.68439 10.09817 4417 ft 99 kts 53°
2026-05-07 14:00 53.68881 10.10723 4756 ft 99 kts 54°
2026-05-07 14:00 53.69388 10.11500 5134 ft 101 kts 34°
2026-05-07 14:00 53.70085 10.11854 5457 ft 108 kts
2026-05-07 14:00 53.70835 10.11630 5798 ft 114 kts 341°
2026-05-07 14:01 53.71466 10.10775 6134 ft 121 kts 311°
2026-05-07 14:01 53.71876 10.09523 6469 ft 123 kts 303°
2026-05-07 14:01 53.72259 10.08243 6800 ft 122 kts 301°
2026-05-07 14:01 53.72642 10.06966 7112 ft 123 kts 303°
2026-05-07 14:02 53.73037 10.05654 7397 ft 127 kts 302°
2026-05-07 14:02 53.73431 10.04335 7761 ft 125 kts 302°
2026-05-07 14:02 53.73821 10.03029 8121 ft 123 kts 300°
2026-05-07 14:02 53.74210 10.01740 8472 ft 123 kts 300°
2026-05-07 14:03 53.74598 10.00452 8826 ft 124 kts 300°
2026-05-07 14:03 53.74989 9.99146 9151 ft 125 kts 300°
2026-05-07 14:03 53.75229 9.97749 9497 ft 126 kts 271°
2026-05-07 14:03 53.75017 9.96332 9853 ft 125 kts 248°
2026-05-07 14:04 53.74677 9.94975 10172 ft 125 kts 247°
2026-05-07 14:04 53.74332 9.93622 10486 ft 125 kts 248°
2026-05-07 14:04 53.73989 9.92270 10804 ft 125 kts 247°
2026-05-07 14:04 53.73647 9.90920 11115 ft 126 kts 248°
2026-05-07 14:05 53.73303 9.89558 11433 ft 126 kts 248°